| time (UTC) | temp F | wind direction | speed MPH | gust MPH | rain 1hr in | rain 24hr in | rain mn in | humidity % | barometer mb |
| 20260508023153 | 47 | 0.0 | 0.0 | 0.00 | 0.00 | 0.00 | 53 | 1011.5 | |
| 20260508022214 | 47 | 349 | 0.0 | 0.0 | 0.00 | 0.00 | 0.00 | 52 | 1011.4 |
| 20260508021132 | 47 | 0.0 | 0.0 | 0.00 | 0.00 | 0.00 | 52 | 1011.3 | |
| 20260508020154 | 48 | 0.0 | 0.0 | 0.00 | 0.00 | 0.00 | 51 | 1011.2 | |
| 20260508015113 | 48 | 349 | 0.0 | 0.0 | 0.00 | 0.00 | 0.00 | 50 | 1011.0 |
| 20260508014154 | 49 | 349 | 0.0 | 0.0 | 0.00 | 0.00 | 0.00 | 49 | 1011.0 |
| 20260508013155 | 50 | 349 | 0.0 | 0.0 | 0.00 | 0.00 | 0.00 | 47 | 1010.9 |
| 20260508012217 | 50 | 338 | 0.0 | 2.0 | 0.00 | 0.00 | 0.00 | 46 | 1010.8 |
| 20260508011135 | 50 | 9 | 0.0 | 1.0 | 0.00 | 0.00 | 0.00 | 45 | 1010.7 |
| 20260508010156 | 51 | 31 | 1.0 | 1.0 | 0.00 | 0.00 | 0.00 | 44 | 1010.5 |
| 20260508005114 | 52 | 26 | 0.0 | 1.0 | 0.00 | 0.00 | 0.00 | 43 | 1010.5 |
| 20260508004136 | 52 | 323 | 1.0 | 3.0 | 0.00 | 0.00 | 0.00 | 42 | 1010.4 |
| 20260508003217 | 53 | 26 | 1.0 | 6.0 | 0.00 | 0.00 | 0.00 | 42 | 1010.1 |
| 20260508002219 | 54 | 357 | 0.0 | 4.0 | 0.00 | 0.00 | 0.00 | 41 | 1009.9 |
| 20260508001137 | 54 | 345 | 2.0 | 4.0 | 0.00 | 0.00 | 0.00 | 41 | 1009.7 |
| 20260508000158 | 55 | 3 | 1.0 | 2.0 | 0.00 | 0.00 | 0.00 | 41 | 1009.5 |
| 20260507235117 | 55 | 102 | 0.0 | 3.0 | 0.00 | 0.00 | 0.00 | 40 | 1009.4 |
| 20260507234138 | 56 | 351 | 1.0 | 3.0 | 0.00 | 0.00 | 0.00 | 40 | 1009.4 |
| 20260507233200 | 56 | 312 | 1.0 | 4.0 | 0.00 | 0.00 | 0.00 | 39 | 1009.3 |
| 20260507232222 | 56 | 14 | 1.0 | 4.0 | 0.00 | 0.00 | 0.00 | 39 | 1009.2 |
| 20260507231140 | 56 | 262 | 2.0 | 3.0 | 0.00 | 0.00 | 0.00 | 39 | 1009.1 |
| 20260507230201 | 57 | 9 | 1.0 | 4.0 | 0.00 | 0.00 | 0.00 | 38 | 1009.0 |
| 20260507225119 | 57 | 53 | 1.0 | 7.0 | 0.00 | 0.00 | 0.00 | 37 | 1008.8 |
| 20260507224141 | 57 | 312 | 1.0 | 2.0 | 0.00 | 0.00 | 0.00 | 38 | 1008.9 |
| 20260507223203 | 58 | 316 | 1.0 | 3.0 | 0.00 | 0.00 | 0.00 | 35 | 1008.7 |
| 20260507222306 | 59 | 2 | 2.0 | 7.0 | 0.00 | 0.00 | 0.00 | 35 | 1008.6 |
| 20260507221142 | 58 | 312 | 1.0 | 3.0 | 0.00 | 0.00 | 0.00 | 36 | 1008.5 |
| 20260507220203 | 59 | 25 | 2.0 | 3.0 | 0.00 | 0.00 | 0.00 | 34 | 1008.5 |
| 20260507215121 | 62 | 291 | 1.0 | 3.0 | 0.00 | 0.00 | 0.00 | 33 | 1008.3 |
| 20260507214143 | 60 | 288 | 2.0 | 6.0 | 0.00 | 0.00 | 0.00 | 33 | 1008.2 |
| 20260507213205 | 61 | 209 | 2.0 | 7.0 | 0.00 | 0.00 | 0.00 | 33 | 1008.0 |
| 20260507212226 | 59 | 1 | 1.0 | 3.0 | 0.00 | 0.00 | 0.00 | 35 | 1008.1 |
| 20260507211144 | 61 | 103 | 4.0 | 10.0 | 0.00 | 0.00 | 0.00 | 32 | 1008.1 |
| 20260507210225 | 59 | 305 | 2.0 | 6.0 | 0.00 | 0.00 | 0.00 | 33 | 1008.0 |
| 20260507205123 | 62 | 337 | 2.0 | 6.0 | 0.00 | 0.00 | 0.00 | 32 | 1008.0 |
| 20260507204205 | 59 | 26 | 1.0 | 4.0 | 0.00 | 0.00 | 0.00 | 34 | 1008.0 |
| 20260507203226 | 61 | 258 | 1.0 | 3.0 | 0.00 | 0.00 | 0.00 | 32 | 1008.0 |
| 20260507202227 | 61 | 263 | 4.0 | 7.0 | 0.00 | 0.00 | 0.00 | 30 | 1008.0 |
| 20260507201205 | 61 | 338 | 1.0 | 6.0 | 0.00 | 0.00 | 0.00 | 32 | 1008.1 |
| 20260507200206 | 63 | 253 | 3.0 | 8.0 | 0.00 | 0.00 | 0.00 | 31 | 1008.1 |
| 20260507195123 | 61 | 229 | 2.0 | 6.0 | 0.00 | 0.00 | 0.00 | 33 | 1008.2 |
| 20260507194145 | 64 | 238 | 3.0 | 6.0 | 0.00 | 0.00 | 0.00 | 30 | 1008.4 |
| 20260507193226 | 62 | 258 | 2.0 | 3.0 | 0.00 | 0.00 | 0.00 | 32 | 1008.5 |
| 20260507192228 | 62 | 252 | 3.0 | 7.0 | 0.00 | 0.00 | 0.00 | 32 | 1008.6 |
| 20260507191146 | 61 | 299 | 2.0 | 4.0 | 0.00 | 0.00 | 0.00 | 34 | 1008.4 |
| 20260507190206 | 60 | 79 | 2.0 | 6.0 | 0.00 | 0.00 | 0.00 | 35 | 1008.4 |
| 20260507185125 | 62 | 273 | 2.0 | 6.0 | 0.00 | 0.00 | 0.00 | 34 | 1008.5 |
| 20260507184146 | 60 | 295 | 2.0 | 4.0 | 0.00 | 0.00 | 0.00 | 36 | 1008.7 |
| 20260507183228 | 61 | 238 | 4.0 | 8.0 | 0.00 | 0.00 | 0.00 | 34 | 1008.7 |
| 20260507182230 | 60 | 310 | 2.0 | 6.0 | 0.00 | 0.00 | 0.00 | 36 | 1008.8 |
| 20260507181148 | 60 | 245 | 2.0 | 4.0 | 0.00 | 0.00 | 0.00 | 37 | 1008.8 |
| 20260507180210 | 58 | 319 | 1.0 | 2.0 | 0.00 | 0.00 | 0.00 | 42 | 1008.9 |
| 20260507175128 | 59 | 285 | 2.0 | 6.0 | 0.00 | 0.00 | 0.00 | 40 | 1008.9 |
| 20260507174149 | 59 | 252 | 3.0 | 7.0 | 0.00 | 0.00 | 0.00 | 40 | 1009.1 |
| 20260507173231 | 59 | 293 | 3.0 | 7.0 | 0.00 | 0.00 | 0.00 | 39 | 1009.3 |
| 20260507172232 | 58 | 273 | 1.0 | 3.0 | 0.00 | 0.00 | 0.00 | 40 | 1009.2 |
| 20260507171150 | 59 | 109 | 2.0 | 4.0 | 0.00 | 0.00 | 0.00 | 41 | 1009.4 |
| 20260507170211 | 59 | 329 | 1.0 | 4.0 | 0.00 | 0.00 | 0.00 | 40 | 1009.5 |
| 20260507165130 | 59 | 280 | 3.0 | 9.0 | 0.00 | 0.00 | 0.00 | 44 | 1009.6 |
| 20260507164151 | 59 | 263 | 3.0 | 7.0 | 0.00 | 0.00 | 0.00 | 43 | 1009.7 |
| 20260507163109 | 58 | 276 | 1.0 | 4.0 | 0.00 | 0.00 | 0.00 | 44 | 1009.7 |
| 20260507162234 | 56 | 220 | 2.0 | 4.0 | 0.00 | 0.00 | 0.00 | 45 | 1009.8 |
| 20260507161152 | 57 | 322 | 2.0 | 6.0 | 0.00 | 0.00 | 0.00 | 44 | 1009.9 |
| 20260507160214 | 57 | 284 | 1.0 | 3.0 | 0.00 | 0.00 | 0.00 | 44 | 1009.9 |
| 20260507155152 | 56 | 300 | 2.0 | 6.0 | 0.00 | 0.00 | 0.00 | 44 | 1010.0 |
| 20260507154154 | 56 | 248 | 2.0 | 4.0 | 0.00 | 0.00 | 0.00 | 43 | 1010.2 |
| 20260507153152 | 56 | 284 | 1.0 | 4.0 | 0.00 | 0.00 | 0.00 | 45 | 1010.3 |
| 20260507152237 | 56 | 288 | 1.0 | 4.0 | 0.00 | 0.00 | 0.00 | 46 | 1010.2 |
| 20260507151155 | 55 | 257 | 1.0 | 2.0 | 0.00 | 0.00 | 0.00 | 45 | 1010.5 |
| 20260507150217 | 54 | 310 | 1.0 | 6.0 | 0.00 | 0.00 | 0.00 | 45 | 1010.5 |
| 20260507145134 | 55 | 348 | 1.0 | 3.0 | 0.00 | 0.00 | 0.00 | 46 | 1010.7 |
| 20260507144236 | 54 | 302 | 2.0 | 6.0 | 0.00 | 0.00 | 0.00 | 46 | 1010.9 |
| 20260507143114 | 55 | 275 | 2.0 | 4.0 | 0.00 | 0.00 | 0.00 | 47 | 1010.9 |
| 20260507142240 | 54 | 297 | 2.0 | 4.0 | 0.00 | 0.00 | 0.00 | 50 | 1010.9 |
| 20260507141217 | 53 | 252 | 2.0 | 6.0 | 0.00 | 0.00 | 0.00 | 51 | 1011.1 |
| 20260507140219 | 53 | 340 | 1.0 | 3.0 | 0.00 | 0.00 | 0.00 | 53 | 1011.3 |
| 20260507135137 | 53 | 85 | 1.0 | 4.0 | 0.00 | 0.00 | 0.00 | 52 | 1011.4 |
| 20260507134158 | 52 | 278 | 0.0 | 3.0 | 0.00 | 0.00 | 0.00 | 55 | 1011.5 |
| 20260507133115 | 52 | 309 | 2.0 | 3.0 | 0.00 | 0.00 | 0.00 | 57 | 1011.5 |
| 20260507132240 | 50 | 252 | 2.0 | 6.0 | 0.00 | 0.00 | 0.00 | 57 | 1011.4 |
| 20260507131158 | 50 | 318 | 1.0 | 2.0 | 0.00 | 0.00 | 0.00 | 60 | 1011.6 |
| 20260507130220 | 49 | 322 | 1.0 | 2.0 | 0.00 | 0.00 | 0.00 | 66 | 1011.6 |
| 20260507125138 | 47 | 306 | 0.0 | 3.0 | 0.00 | 0.00 | 0.00 | 72 | 1011.5 |
| 20260507124157 | 46 | 291 | 1.0 | 3.0 | 0.00 | 0.00 | 0.00 | 76 | 1011.6 |
| 20260507123136 | 45 | 283 | 1.0 | 2.0 | 0.00 | 0.00 | 0.00 | 78 | 1011.5 |
| 20260507122241 | 44 | 283 | 1.0 | 2.0 | 0.00 | 0.00 | 0.00 | 82 | 1011.6 |
| 20260507121159 | 43 | 298 | 1.0 | 2.0 | 0.00 | 0.00 | 0.00 | 85 | 1011.5 |
| 20260507120240 | 41 | 20 | 0.0 | 1.0 | 0.00 | 0.00 | 0.00 | 95 | 1011.6 |
| 20260507115138 | 39 | 20 | 0.0 | 1.0 | 0.00 | 0.00 | 0.00 | 95 | 1011.6 |
| 20260507114200 | 38 | 20 | 0.0 | 1.0 | 0.00 | 0.00 | 0.00 | 95 | 1011.6 |
| 20260507113118 | 38 | 20 | 1.0 | 1.0 | 0.00 | 0.00 | 0.00 | 96 | 1011.5 |
| 20260507112243 | 37 | 0.0 | 0.0 | 0.00 | 0.00 | 0.00 | 95 | 1011.4 | |
| 20260507111200 | 37 | 0.0 | 0.0 | 0.00 | 0.00 | 0.00 | 95 | 1011.2 | |
| 20260507110222 | 35 | 0.0 | 0.0 | 0.00 | 0.00 | 0.00 | 95 | 1011.2 | |
| 20260507105140 | 35 | 0.0 | 0.0 | 0.00 | 0.00 | 0.00 | 95 | 1011.1 | |
| 20260507104241 | 35 | 0.0 | 0.0 | 0.00 | 0.00 | 0.00 | 95 | 1010.9 | |
| 20260507103119 | 35 | 0.0 | 0.0 | 0.00 | 0.00 | 0.00 | 94 | 1010.9 | |
| 20260507102243 | 35 | 0.0 | 0.0 | 0.00 | 0.00 | 0.00 | 94 | 1010.9 | |
| 20260507101201 | 36 | 0.0 | 0.0 | 0.00 | 0.00 | 0.00 | 94 | 1011.0 | |
| 20260507100243 | 36 | 0.0 | 0.0 | 0.00 | 0.00 | 0.00 | 93 | 1010.9 | |
| 20260507095141 | 36 | 0.0 | 0.0 | 0.00 | 0.00 | 0.00 | 93 | 1010.9 | |
| 20260507094202 | 36 | 0.0 | 0.0 | 0.00 | 0.00 | 0.00 | 93 | 1010.9 | |
| 20260507093120 | 36 | 0.0 | 0.0 | 0.00 | 0.00 | 0.00 | 92 | 1010.9 | |
| 20260507092245 | 37 | 0.0 | 0.0 | 0.00 | 0.00 | 0.00 | 91 | 1011.0 | |
| 20260507091202 | 38 | 0.0 | 0.0 | 0.00 | 0.00 | 0.00 | 91 | 1011.0 | |
| 20260507090221 | 38 | 0.0 | 0.0 | 0.00 | 0.00 | 0.00 | 91 | 1010.9 | |
| 20260507085139 | 38 | 20 | 0.0 | 0.0 | 0.00 | 0.00 | 0.00 | 91 | 1011.0 |
| 20260507084200 | 38 | 20 | 0.0 | 0.0 | 0.00 | 0.00 | 0.00 | 90 | 1011.0 |
| 20260507083119 | 39 | 0.0 | 0.0 | 0.00 | 0.00 | 0.00 | 89 | 1011.0 | |
| 20260507082324 | 39 | 20 | 0.0 | 1.0 | 0.00 | 0.00 | 0.00 | 88 | 1011.0 |
| 20260507081221 | 39 | 20 | 0.0 | 0.0 | 0.00 | 0.00 | 0.00 | 89 | 1010.9 |
| 20260507080223 | 39 | 0.0 | 0.0 | 0.00 | 0.00 | 0.00 | 88 | 1011.0 | |
| 20260507075141 | 39 | 0.0 | 0.0 | 0.00 | 0.00 | 0.00 | 87 | 1011.0 | |
| 20260507074202 | 40 | 0.0 | 0.0 | 0.00 | 0.00 | 0.00 | 84 | 1010.9 | |
| 20260507073121 | 41 | 0.0 | 0.0 | 0.00 | 0.00 | 0.00 | 83 | 1011.0 | |
| 20260507072246 | 41 | 0.0 | 0.0 | 0.00 | 0.00 | 0.00 | 83 | 1011.1 | |
| 20260507071204 | 42 | 0.0 | 0.0 | 0.00 | 0.00 | 0.00 | 82 | 1011.1 | |
| 20260507070226 | 42 | 0.0 | 0.0 | 0.00 | 0.00 | 0.00 | 81 | 1011.3 | |
| 20260507065144 | 42 | 0.0 | 0.0 | 0.00 | 0.00 | 0.00 | 81 | 1011.3 | |
| 20260507064205 | 42 | 0.0 | 0.0 | 0.00 | 0.00 | 0.00 | 79 | 1011.3 | |
| 20260507063124 | 43 | 0.0 | 0.0 | 0.00 | 0.00 | 0.00 | 77 | 1011.2 | |
| 20260507062145 | 44 | 0.0 | 0.0 | 0.00 | 0.00 | 0.00 | 76 | 1011.2 | |
| 20260507061207 | 45 | 0.0 | 0.0 | 0.00 | 0.00 | 0.00 | 74 | 1011.3 | |
| 20260507060228 | 46 | 0.0 | 0.0 | 0.00 | 0.00 | 0.00 | 72 | 1011.3 | |
| 20260507055206 | 47 | 0.0 | 0.0 | 0.00 | 0.00 | 0.00 | 70 | 1011.5 | |
| 20260507054208 | 47 | 20 | 0.0 | 0.0 | 0.00 | 0.00 | 0.00 | 69 | 1011.5 |
| 20260507053126 | 47 | 20 | 0.0 | 0.0 | 0.00 | 0.00 | 0.00 | 68 | 1011.7 |
| 20260507052148 | 47 | 19 | 0.0 | 1.0 | 0.00 | 0.00 | 0.00 | 68 | 1012.0 |
| 20260507051249 | 47 | 17 | 0.0 | 0.0 | 0.00 | 0.00 | 0.00 | 69 | 1012.0 |
| 20260507050250 | 47 | 0.0 | 0.0 | 0.00 | 0.00 | 0.00 | 69 | 1012.0 | |
| 20260507045208 | 47 | 0.0 | 0.0 | 0.00 | 0.00 | 0.00 | 71 | 1012.0 | |
| 20260507044209 | 48 | 0.0 | 0.0 | 0.00 | 0.00 | 0.00 | 70 | 1011.8 | |
| 20260507043127 | 48 | 17 | 0.0 | 1.0 | 0.00 | 0.00 | 0.00 | 66 | 1011.8 |
| 20260507042148 | 48 | 17 | 0.0 | 0.0 | 0.00 | 0.00 | 0.00 | 68 | 1012.0 |
| 20260507041210 | 48 | 0.0 | 0.0 | 0.00 | 0.00 | 0.00 | 66 | 1011.8 | |
| 20260507040230 | 48 | 0.0 | 0.0 | 0.00 | 0.00 | 0.00 | 64 | 1011.8 | |
| 20260507035148 | 49 | 17 | 0.0 | 0.0 | 0.00 | 0.00 | 0.00 | 64 | 1011.7 |
| 20260507034210 | 49 | 0.0 | 0.0 | 0.00 | 0.00 | 0.00 | 63 | 1011.6 | |
| 20260507033128 | 49 | 0.0 | 0.0 | 0.00 | 0.00 | 0.00 | 62 | 1011.7 | |
| 20260507032149 | 49 | 42 | 0.0 | 2.0 | 0.00 | 0.00 | 0.00 | 61 | 1011.3 |
| 20260507031210 | 49 | 7 | 0.0 | 1.0 | 0.00 | 0.00 | 0.00 | 63 | 1011.4 |
| 20260507030232 | 49 | 6 | 0.0 | 1.0 | 0.00 | 0.00 | 0.00 | 63 | 1011.2 |
| 20260507025150 | 49 | 6 | 0.0 | 0.0 | 0.00 | 0.00 | 0.00 | 64 | 1011.2 |
| 20260507024212 | 49 | 0.0 | 0.0 | 0.00 | 0.00 | 0.00 | 65 | 1011.3 |